Temperature
13 13 14 14 15 16 16 17 17 17 17 18 18 17 17 17 17 17 17 17 17 17 17 17 17 17 17 17 16 16 16 16 16 16 16 16 16 17
12 13 13 13 14 15 15 16 16 17 17 17 17 17 17 17 17 16 16 16 16 16 16 16 16 17 16 16 16 16 16 16 16 16 16 16 16 16
12 12 12 13 13 14 14 15 15 16 16 17 17 16 16 16 16 16 16 16 16 16 16 16 16 16 16 16 16 16 16 16 16 16 16 16 16 16
11 11 12 12 12 13 13 14 14 15 15 16 16 15 16 15 16 15 15 15 16 15 15 16 16 16 16 16 16 16 16 16 16 16 16 16 16 16
11 11 11 11 11 12 12 13 13 14 14 14 15 15 15 15 15 15 14 15 15 15 15 15 15 15 15 15 16 16 16 16 16 16 16 16 16 16
11 11 11 11 11 11 11 12 12 13 13 13 14 14 14 14 14 14 14 14 14 14 14 14 14 15 15 15 15 15 15 16 16 16 15 15 15 15
10 10 10 11 11 11 11 11 11 12 12 13 13 13 13 14 14 14 14 14 13 13 13 14 14 14 14 14 15 15 15 15 15 15 15 15 15 15
10 10 10 10 10 10 11 11 11 11 11 12 12 13 13 13 14 13 13 13 13 13 13 13 13 13 14 14 14 14 14 14 14 14 14 14 14 14
9 10 10 10 10 10 10 10 10 11 11 11 12 12 12 13 13 13 13 13 13 13 12 12 12 12 13 13 13 13 14 14 14 14 14 14 14 14
9 9 9 10 10 10 10 10 10 10 11 11 11 12 12 12 13 13 13 13 13 13 12 12 11 12 12 12 13 13 13 13 13 13 13 13 13 13
8 9 9 9 10 10 10 10 10 10 10 11 11 11 11 12 12 12 12 12 12 12 12 12 11 11 11 11 12 12 12 12 12 12 12 12 12 12
8 8 9 9 9 9 10 10 9 10 10 10 10 11 11 11 12 12 12 12 12 12 12 12 11 11 10 11 11 11 11 11 11 11 11 12 12 12
7 8 8 9 9 9 9 9 9 9 9 10 10 10 10 11 11 12 12 12 12 12 12 12 11 11 11 10 10 11 11 11 11 11 11 11 11 11
7 8 8 9 9 9 9 9 9 9 9 9 9 10 10 10 11 11 11 12 12 12 13 12 12 12 12 11 10 10 10 10 11 11 10 10 10 10
7 7 8 8 9 9 9 9 9 9 9 9 9 10 10 11 11 11 11 11 11 11 12 12 12 12 12 12 11 11 10 10 10 10 10 10 10 10
7 7 7 8 8 8 9 9 9 8 8 8 9 10 10 10 11 11 11 11 11 11 11 11 11 12 11 11 11 11 11 10 10 10 10 10 9 9
7 7 7 7 8 8 8 8 8 8 8 8 9 9 10 10 10 10 11 11 11 11 11 11 11 11 11 11 11 10 10 10 10 9 9 9 9 9
7 7 7 7 8 8 8 8 8 8 8 8 9 9 9 10 10 10 10 10 11 10 11 11 10 10 10 10 10 10 10 10 9 9 9 9 9 9
7 7 7 7 8 8 8 8 8 8 8 8 9 9 9 10 10 10 10 10 10 10 10 10 10 10 10 10 10 10 10 10 9 9 9 9 9 9
7 7 7 7 8 8 8 8 9 9 8 9 9 9 9 9 9 10 10 10 10 10 10 10 10 10 10 10 10 10 10 10 10 9 9 9 9 9
7 7 7 8 8 8 8 8 9 9 9 9 9 9 9 9 9 10 10 10 10 10 10 10 10 10 10 10 10 10 10 10 10 10 9 9 9 9
7 7 7 8 8 8 8 8 8 8 8 9 9 9 9 9 9 9 9 9 10 10 10 10 10 10 10 10 10 10 10 10 9 9 10 10 10 10
7 7 7 8 8 8 8 8 8 8 8 8 8 9 9 9 9 9 9 9 9 9 10 10 10 10 10 10 10 10 10 10 9 9 9 10 10 10
Wind_Speed
4 3 3 4 4 4 4 2 2 3 4 4 3 5 6 9 14 11 11 12 12 11 10 9 8 7 6 6 6 8 9 10 12 14 15 17 18 18
3 3 3 4 4 4 4 3 2 3 3 3 3 4 6 8 12 11 12 14 12 11 10 9 8 7 6 5 4 5 6 7 9 11 14 15 16 17
5 5 5 4 4 3 3 3 3 2 3 2 2 4 5 7 7 9 12 11 9 10 11 10 8 7 6 5 4 3 4 5 6 8 11 13 14 15
8 7 6 5 5 4 4 4 3 3 3 3 2 3 5 7 7 7 7 9 9 11 11 11 9 8 7 6 4 3 3 3 4 5 7 9 11 12
9 8 8 7 6 5 5 4 3 4 2 3 3 3 3 5 7 6 7 6 9 11 11 10 10 9 8 6 5 4 3 2 2 2 3 4 5 7
9 9 9 8 8 7 6 6 4 4 3 3 4 4 4 5 6 7 6 6 6 8 8 9 10 10 9 8 6 5 5 4 4 5 5 4 4 4
9 9 10 10 11 8 7 6 6 5 4 4 5 4 5 6 6 6 7 6 5 6 7 6 6 5 6 7 7 6 7 7 7 8 9 9 9 8
9 10 10 10 11 12 11 9 8 7 6 5 5 5 6 6 6 7 8 8 5 6 6 5 5 5 5 6 7 8 9 10 11 12 12 13 13 13
8 9 12 13 13 11 12 12 11 10 8 5 5 5 5 5 7 8 8 9 6 8 7 5 5 6 5 8 9 10 11 12 13 14 16 16 16 16
9 9 10 9 10 10 11 11 10 10 10 8 7 6 5 3 4 5 6 6 6 7 7 5 5 6 6 7 9 11 12 13 15 16 17 19 19 19
11 11 11 11 11 12 10 9 9 9 13 13 12 10 9 8 5 4 6 8 7 6 5 5 6 6 5 4 7 11 13 14 15 17 18 20 21 20
9 10 13 12 13 13 10 9 9 8 8 9 10 9 9 9 11 8 8 9 7 5 6 6 8 6 5 3 4 7 9 11 14 16 16 16 15 13
8 8 8 13 14 15 12 8 8 6 6 6 7 8 7 7 8 9 9 9 8 4 8 7 8 6 5 5 4 5 7 7 8 8 9 9 10 11
7 6 5 9 12 14 12 10 10 7 5 5 6 7 7 8 8 9 10 9 7 6 10 9 7 8 8 7 5 7 7 7 7 6 7 7 8 11
6 4 3 6 9 10 12 12 10 7 6 6 7 7 7 7 7 8 9 9 7 8 12 8 8 9 8 7 8 8 7 6 6 5 5 5 5 8
7 6 6 8 8 8 9 9 8 7 7 7 7 6 6 6 6 7 7 8 7 5 7 9 8 10 7 9 10 10 8 8 8 7 6 5 7 10
5 5 5 6 7 7 7 8 9 9 9 7 7 7 6 6 6 7 7 8 8 8 8 6 6 6 7 9 10 10 8 7 8 7 7 6 6 6
4 6 7 7 8 8 9 9 10 10 9 9 8 8 7 7 7 7 8 9 10 9 9 8 8 6 5 3 7 10 9 8 8 8 7 6 6 6
5 6 7 8 8 8 8 8 9 9 8 9 9 8 8 7 8 8 9 9 10 10 10 10 11 10 11 9 5 9 9 8 9 7 6 6 6 7
6 7 7 7 7 7 7 8 8 8 8 8 8 8 8 8 8 9 10 10 10 10 9 9 10 10 10 9 6 6 11 10 8 8 7 4 4 7
6 7 7 6 7 7 7 7 7 7 8 8 8 8 8 8 8 9 10 13 11 11 12 11 9 10 6 7 8 6 5 8 11 7 8 6 5 5
5 6 6 6 6 6 6 6 6 6 7 8 8 8 8 8 9 10 10 11 10 10 10 9 9 8 7 9 10 10 7 5 7 11 9 7 6 7
4 4 4 5 5 5 5 6 7 6 7 7 8 8 8 8 8 9 10 10 10 11 12 11 9 7 7 8 10 10 10 8 6 5 3 5 8 8
Wind_Direction
252 259 262 272 282 292 292 266 233 212 201 190 168 151 133 124 149 147 144 153 155 158 161 163 164 164 170 185 203 215 221 224 227 228 229 231 230 231
239 244 252 265 273 278 281 283 261 231 225 193 179 153 145 143 156 142 136 142 144 149 149 148 148 148 153 159 173 197 211 221 229 233 232 231 230 232
237 233 227 240 257 272 285 284 272 244 230 222 150 146 130 132 137 135 142 144 139 141 140 138 137 137 141 144 158 183 206 219 230 235 235 234 233 234
227 228 227 228 228 241 254 262 270 266 218 219 190 156 151 148 149 154 155 146 136 137 135 132 130 130 130 131 138 157 188 209 223 233 237 236 236 236
223 222 221 218 221 221 229 241 243 252 223 220 218 177 163 162 157 163 139 131 134 138 134 128 126 125 122 118 118 123 136 155 173 188 209 224 226 226
223 222 221 215 213 211 220 223 228 232 225 222 225 201 183 172 164 158 150 151 146 147 132 130 127 118 110 105 103 102 106 116 125 128 128 129 134 141
226 222 225 220 212 209 220 210 213 217 217 214 222 210 197 179 182 173 166 156 144 143 138 138 138 126 110 96 90 94 104 109 113 115 113 112 110 108
228 226 228 222 213 207 212 204 200 213 215 214 222 215 214 200 189 183 167 161 159 156 148 146 144 122 106 91 93 100 104 108 111 111 109 107 104 103
235 228 234 227 206 205 206 207 211 214 206 202 222 221 219 209 189 189 182 175 163 159 151 141 129 108 97 91 100 103 106 109 110 110 108 105 103 101
242 235 229 238 227 207 203 207 211 213 209 211 219 226 238 223 197 196 189 161 133 150 149 135 132 115 101 94 98 105 109 111 112 112 110 107 103 98
238 236 228 223 225 213 205 206 212 217 217 216 208 213 220 220 196 173 180 166 158 163 158 135 137 123 114 108 105 109 112 115 116 116 117 115 109 100
236 237 232 222 214 207 208 206 212 216 220 210 212 217 216 214 201 192 189 181 164 163 171 144 149 142 131 126 133 129 118 117 121 122 123 123 118 112
235 232 228 213 206 204 207 208 211 211 218 218 205 206 205 209 206 198 193 190 181 171 168 155 159 157 138 142 147 151 146 144 139 133 132 129 131 128
236 242 226 201 201 199 203 203 192 192 212 220 218 210 206 207 207 200 194 190 189 174 168 163 159 164 147 146 149 158 156 158 158 152 153 141 132 136
243 237 203 186 194 203 207 192 182 195 214 221 224 219 210 204 196 190 184 176 171 167 169 176 160 158 155 152 152 159 160 164 166 158 157 154 150 144
232 220 191 186 200 204 190 192 199 208 213 219 222 220 208 201 196 187 178 169 162 161 168 171 164 161 159 152 154 160 162 165 170 167 160 155 162 163
206 203 199 189 199 203 199 195 202 208 216 219 220 216 207 201 193 185 175 169 168 169 167 164 159 159 158 155 158 164 163 158 162 163 160 163 169 168
203 209 210 211 213 209 206 205 204 206 207 208 213 213 206 198 190 182 175 176 171 170 168 164 156 145 142 142 164 163 163 161 161 163 165 160 160 157
211 221 219 218 219 219 216 213 207 205 204 204 203 206 203 198 190 182 178 177 173 170 169 166 166 167 167 165 171 171 161 159 159 165 173 165 160 160
224 225 223 221 222 224 223 219 213 204 200 203 203 201 200 194 188 182 180 177 174 168 167 170 176 176 172 162 150 159 165 158 160 165 170 156 129 140
224 229 229 224 221 222 223 219 213 203 197 199 201 199 198 193 188 183 179 175 172 170 173 177 176 162 137 127 136 138 136 152 162 162 164 155 147 148
239 235 233 225 217 216 214 210 206 200 198 196 193 191 192 190 184 178 175 174 174 169 166 161 155 152 150 156 157 151 141 130 133 147 159 165 164 175
242 244 237 227 218 207 200 201 200 196 195 192 187 185 185 182 176 173 172 169 165 161 158 156 156 157 160 157 153 152 150 151 150 141 128 133 140 151
Height
1466 1467 1468 1470 1471 1474 1477 1480 1482 1483 1486 1488 1491 1494 1496 1498 1501 1502 1504 1506 1508 1510 1511 1513 1515 1517 1519 1521 1524 1526 1528 1530 1532 1534 1536 1539 1541 1542
1461 1463 1464 1465 1467 1469 1472 1474 1477 1480 1482 1484 1486 1489 1492 1494 1497 1499 1501 1503 1505 1507 1508 1510 1512 1514 1515 1517 1519 1521 1523 1525 1527 1529 1531 1533 1535 1537
1456 1458 1459 1461 1462 1464 1466 1469 1472 1474 1477 1480 1483 1485 1488 1491 1493 1496 1498 1500 1502 1504 1505 1507 1509 1510 1512 1513 1515 1517 1519 1520 1522 1524 1525 1527 1529 1531
1451 1452 1453 1455 1457 1459 1461 1463 1466 1469 1472 1475 1478 1481 1484 1487 1490 1493 1495 1497 1499 1501 1503 1504 1505 1507 1509 1510 1512 1513 1515 1516 1517 1519 1520 1522 1524 1525
1446 1447 1448 1450 1451 1453 1456 1458 1461 1464 1467 1470 1474 1477 1480 1483 1486 1490 1492 1493 1496 1498 1500 1501 1503 1504 1505 1507 1508 1510 1511 1512 1513 1514 1515 1517 1518 1520
1440 1442 1443 1445 1447 1449 1451 1453 1455 1458 1461 1465 1469 1472 1475 1479 1482 1485 1488 1491 1493 1495 1497 1498 1500 1501 1503 1504 1505 1507 1508 1508 1509 1510 1511 1513 1514 1515
1433 1435 1437 1440 1441 1443 1446 1448 1450 1453 1456 1459 1463 1466 1470 1474 1477 1480 1484 1487 1490 1492 1494 1496 1497 1499 1500 1501 1503 1504 1505 1506 1506 1507 1508 1510 1511 1512
1425 1428 1431 1434 1436 1438 1440 1443 1445 1448 1450 1453 1457 1460 1464 1468 1472 1475 1479 1482 1486 1489 1491 1493 1495 1496 1498 1499 1500 1501 1502 1503 1504 1505 1506 1507 1509 1510
1418 1421 1425 1428 1430 1432 1435 1437 1440 1443 1445 1449 1451 1454 1459 1463 1466 1470 1473 1477 1480 1483 1488 1490 1492 1494 1496 1497 1499 1499 1500 1501 1502 1503 1505 1506 1507 1508
1411 1414 1417 1421 1424 1427 1429 1431 1434 1437 1440 1443 1446 1449 1454 1457 1461 1464 1468 1473 1477 1480 1484 1487 1489 1492 1494 1496 1497 1498 1499 1501 1502 1502 1504 1505 1507 1508
1403 1407 1410 1414 1418 1421 1424 1426 1429 1432 1435 1438 1442 1445 1448 1452 1456 1460 1463 1466 1471 1475 1479 1482 1486 1489 1492 1494 1496 1497 1499 1500 1501 1502 1504 1505 1507 1508
1396 1400 1403 1407 1411 1415 1418 1421 1424 1427 1430 1433 1436 1439 1443 1446 1450 1454 1457 1461 1465 1470 1474 1478 1481 1485 1489 1492 1494 1496 1498 1499 1501 1502 1504 1505 1507 1508
1390 1393 1397 1401 1405 1409 1413 1416 1419 1423 1426 1428 1431 1434 1437 1441 1444 1448 1452 1456 1461 1464 1469 1473 1477 1481 1484 1488 1491 1494 1496 1498 1500 1502 1504 1506 1507 1509
1384 1388 1392 1395 1399 1403 1407 1411 1415 1418 1421 1424 1426 1429 1432 1435 1439 1443 1447 1452 1457 1461 1464 1468 1472 1476 1480 1483 1487 1491 1494 1497 1499 1501 1503 1505 1507 1509
1379 1383 1386 1390 1394 1398 1402 1406 1409 1413 1416 1418 1421 1424 1427 1431 1435 1438 1442 1447 1452 1456 1460 1465 1469 1473 1476 1479 1483 1487 1491 1495 1498 1500 1503 1505 1507 1509
1375 1379 1382 1386 1389 1393 1397 1400 1403 1407 1410 1413 1416 1419 1423 1426 1429 1433 1437 1441 1446 1451 1456 1461 1466 1470 1473 1477 1481 1484 1488 1491 1495 1499 1502 1504 1507 1509
1372 1376 1379 1382 1385 1388 1392 1394 1398 1401 1404 1408 1411 1414 1418 1421 1424 1428 1432 1436 1440 1445 1451 1456 1462 1468 1472 1475 1478 1482 1486 1490 1493 1497 1500 1503 1506 1508
1370 1372 1375 1377 1380 1383 1386 1389 1392 1395 1398 1401 1405 1408 1412 1416 1419 1423 1427 1431 1435 1441 1446 1451 1457 1464 1469 1474 1478 1480 1484 1488 1492 1495 1499 1502 1505 1507
1366 1368 1371 1373 1376 1379 1381 1384 1387 1390 1393 1396 1399 1403 1407 1410 1414 1417 1422 1426 1431 1436 1442 1447 1452 1458 1463 1468 1474 1479 1482 1486 1490 1494 1498 1501 1504 1506
1363 1365 1367 1369 1371 1374 1376 1379 1382 1385 1388 1391 1394 1397 1401 1405 1409 1413 1417 1422 1426 1432 1438 1443 1448 1454 1459 1464 1469 1475 1480 1484 1488 1492 1496 1500 1503 1506
1360 1361 1363 1364 1366 1369 1371 1374 1377 1380 1382 1385 1389 1392 1396 1400 1404 1408 1413 1418 1423 1428 1433 1439 1445 1452 1458 1464 1468 1473 1478 1483 1487 1490 1494 1498 1501 1504
1357 1358 1359 1361 1362 1364 1367 1369 1372 1374 1377 1380 1383 1387 1391 1395 1400 1404 1408 1414 1419 1424 1430 1437 1443 1449 1455 1460 1464 1470 1475 1481 1486 1490 1494 1497 1499 1501
1355 1356 1357 1358 1359 1361 1363 1365 1367 1370 1373 1376 1379 1383 1387 1391 1396 1401 1405 1410 1416 1421 1427 1434 1440 1447 1452 1458 1463 1468 1473 1478 1483 1487 1492 1495 1498 1501